Preview of NWS' New Version of Forecast
This preview is not operational and should not be used for support decisions.

Regional Weather Roundup (RWR)

Issued by Gray - Portland, ME (GYX)

                            
000
ASUS41 KGYX 250106
RWRGYX
WEATHER ROUNDUP FOR MAINE AND NEW HAMPSHIRE
NATIONAL WEATHER SERVICE GRAY ME
900 PM EDT THU MAY 24 2018

MEZ002-005-006-010-012-015-018-020-021-024-026-027-029-250200-
MAINE
  
CITY           SKY/WX    TMP DP  RH WIND       PRES   REMARKS
PORTLAND       FAIR      54  49  83 S6        30.04R                  
SANFORD        FAIR      51  47  86 SW3       30.04S                  
BAR HARBOR     FAIR      48  42  80 SW14G21   30.05R                  
WISCASSET      FAIR      52  46  80 S6        30.06S                  
ROCKLAND       FAIR      50  46  86 SW8       30.05F                  
FRYEBURG       FAIR      58  41  53 SW6       30.01R                  
LEWISTONAUBURN FAIR      51  47  86 S6        30.03S                  
AUGUSTA        FAIR      51  45  79 VRB7      30.03S                  
WATERVILLE     FAIR      52  46  80 SW8       30.00S                  
BANGOR         FAIR      51  44  77 S9        30.01R                  
GREENVILLE       N/A     59  33  37 VRB3      29.94S                  
MILLINOCKET    CLOUDY    57  44  62 VRB6      29.95F                  
HOULTON        CLOUDY    56  35  45 S3        29.91S                  
PRESQUE ISLE   CLOUDY    57  30  35 CALM      29.92R                  
FRENCHVILLE    CLOUDY    56  29  35 CALM      29.88F                  
CARIBOU        CLOUDY    57  28  33 VRB5      29.90R                  
$$

NHZ002-005-008-009-011-012-014-250200-
NEW HAMPSHIRE
  
CITY           SKY/WX    TMP DP  RH WIND       PRES   REMARKS
PORTSMOUTH     PTCLDY    55  48  78 S5        30.03R                  
ROCHESTER      FAIR      55  50  83 CALM      30.03S                  
NASHUA         FAIR      66  51  58 VRB6G16   30.04R                  
MANCHESTER     FAIR      67  50  54 S8        30.02R                  
CONCORD        FAIR      61  44  53 CALM      30.02R                  
LACONIA        FAIR      59  45  59 CALM      30.02S                  
PLYMOUTH       FAIR      55  47  73 CALM      30.02R                  
BERLIN         FAIR      52  42  69 CALM      30.00F                  
WHITEFIELD     FAIR      53  44  71 CALM      30.02S                  
JAFFREY        FAIR      59  49  69 CALM      30.06R                  
KEENE          FAIR      59  46  62 CALM      30.04R                  
LEBANON        FAIR      58  44  60 CALM      30.01R                  
MT WASHINGTON  PTCLDY    41  23  48 NW46        N/A                   
$$

VTZ005-007-008-250200-
VERMONT
  
CITY           SKY/WX    TMP DP  RH WIND       PRES   REMARKS
ST JOHNSBURY     N/A     58  44  60 MISG      29.99S                  
MONTPELIER     FAIR      53  42  66 S5        30.05S                  
BURLINGTON     FAIR      65  43  44 SE3       29.98F                  
$$

MAZ007-012-024-CTZ003-RIZ002-NYZ038-NYZ072-250200-
SOUTHERN NEW ENGLAND AND NY
  
CITY           SKY/WX    TMP DP  RH WIND       PRES   REMARKS
BOSTON         FAIR      59  47  64 SW15      30.08R                  
WORCESTER      FAIR      60  50  69 S13       30.08R                  
NANTUCKET      FAIR      50  50 100 S10       30.13S                  
PROVIDENCE     FAIR      55  51  86 S8        30.12R                  
HARTFORD       FAIR      66  54  65 S12       30.06R                  
ALBANY         FAIR      70  42  36 W7        30.03F                  
NEW YORK CITY  FAIR      75  43  31 S9        30.07R                  
$$

ANZ081-ANZ082-ANZ150-NHZ014-MEZ023>029-250200-
COASTAL MARINE OBSERVATIONS
  
STATION/POSITION TIME  TEMP    WIND        PRES    WAVE
                       AIR SEA DIR/SP/G            HT/PER
                 (UTC) (F)     (DEG/KT/KT) (MB)    (FT/S)
MOUNT DESERT ROC 0100   48     200/ 19/ 21 1017.7F
MATINICUS ROCK   0000   49     190/ 16/ 17 1017.6F
ISLE OF SHOALS   0000   55     170/ 16/ 19 1016.9F
JEFFREYS LEDGE   0036      53                N/A     4/ 5
$$

.............KEY..............
   WCI - WIND CHILL
   TC  - TEMPERATURE IN CELSIUS
   VSB - VISIBILITY IN MILES
   HX  - HEAT INDEX
   FAIR- INDICATES FEW OR NO CLOUDS BELOW 12,000 FT, WITH NO 
         SIGNIFICANT WEATHER AND/OR OBSTRUCTIONS TO VISIBILITY.